Time,TemperatureF,DewpointF,PressureIn,WindDirection,WindDirectionDegrees,WindSpeedMPH,WindSpeedGustMPH,Humidity,HourlyPrecipIn,Conditions,Clouds,dailyrainin,SoftwareType,DateUTC
2013-08-18 00:01:00,59.7,52.5,30.44,North,2,0.0,0.0,77,0.00,CLR,CLR,0.00,WeatherDisplay:10.34,2013-08-18 04:01:00,
2013-08-18 00:02:00,59.7,52.5,30.44,North,2,0.0,0.0,77,0.00,CLR,CLR,0.00,WeatherDisplay:10.34,2013-08-18 04:02:00,
2013-08-18 00:03:00,59.7,52.5,30.44,North,2,0.0,0.0,77,0.00,CLR,CLR,0.00,WeatherDisplay:10.34,2013-08-18 04:03:00,
2013-08-18 00:07:00,59.7,52.5,30.44,North,2,0.0,0.0,77,0.00,CLR,CLR,0.00,WeatherDisplay:10.34,2013-08-18 04:07:00,
2013-08-18 00:10:00,59.7,52.8,30.44,North,2,0.0,0.0,78,0.00,CLR,CLR,0.00,WeatherDisplay:10.34,2013-08-18 04:10:00,
2013-08-18 00:15:00,59.7,53.2,30.44,North,2,0.0,0.0,79,0.00,CLR,CLR,0.00,WeatherDisplay:10.34,2013-08-18 04:15:00,
2013-08-18 00:20:00,59.5,53.0,30.44,North,2,0.0,0.0,79,0.00,CLR,CLR,0.00,WeatherDisplay:10.34,2013-08-18 04:20:00,
2013-08-18 00:25:00,59.5,53.0,30.44,North,1,0.0,0.0,79,0.00,CLR,CLR,0.00,WeatherDisplay:10.34,2013-08-18 04:25:00,
2013-08-18 00:30:00,59.5,53.4,30.44,North,1,0.0,0.0,80,0.00,CLR,CLR,0.00,WeatherDisplay:10.34,2013-08-18 04:30:00,
2013-08-18 00:35:00,59.5,53.4,30.44,North,1,0.0,0.0,80,0.00,CLR,CLR,0.00,WeatherDisplay:10.34,2013-08-18 04:35:00,
2013-08-18 00:40:00,59.5,53.7,30.44,North,1,0.0,0.0,81,0.00,CLR,CLR,0.00,WeatherDisplay:10.34,2013-08-18 04:40:00,
2013-08-18 00:45:00,59.4,53.5,30.44,North,1,0.0,0.0,81,0.00,CLR,CLR,0.00,WeatherDisplay:10.34,2013-08-18 04:45:00,
2013-08-18 00:50:00,59.4,53.5,30.44,North,1,0.0,0.0,81,0.00,CLR,CLR,0.00,WeatherDisplay:10.34,2013-08-18 04:50:00,
2013-08-18 00:55:00,59.4,53.5,30.44,North,1,0.0,0.0,81,0.00,CLR,CLR,0.00,WeatherDisplay:10.34,2013-08-18 04:55:00,
2013-08-18 01:00:00,59.4,53.5,30.44,North,1,0.0,0.0,81,0.00,CLR,CLR,0.00,WeatherDisplay:10.34,2013-08-18 05:00:00,
2013-08-18 01:05:00,59.4,53.9,30.44,North,2,0.0,0.0,82,0.00,CLR,CLR,0.00,WeatherDisplay:10.34,2013-08-18 05:05:00,
2013-08-18 01:10:00,59.4,53.9,30.44,North,2,0.0,0.0,82,0.00,CLR,CLR,0.00,WeatherDisplay:10.34,2013-08-18 05:10:00,
2013-08-18 01:15:00,59.4,53.9,30.44,North,1,0.0,0.0,82,0.00,CLR,CLR,0.00,WeatherDisplay:10.34,2013-08-18 05:15:00,
2013-08-18 01:20:00,59.4,53.9,30.44,North,1,0.0,0.0,82,0.00,CLR,CLR,0.00,WeatherDisplay:10.34,2013-08-18 05:20:00,
2013-08-18 01:25:00,59.4,53.9,30.44,North,2,0.0,0.0,82,0.00,CLR,CLR,0.00,WeatherDisplay:10.34,2013-08-18 05:25:00,
2013-08-18 01:30:00,59.4,53.9,30.44,North,1,0.0,0.0,82,0.00,CLR,CLR,0.00,WeatherDisplay:10.34,2013-08-18 05:30:00,
2013-08-18 01:35:00,59.2,54.0,30.44,North,2,0.0,0.0,83,0.00,CLR,CLR,0.00,WeatherDisplay:10.34,2013-08-18 05:35:00,
2013-08-18 01:40:00,59.4,54.2,30.44,North,2,0.0,0.0,83,0.00,CLR,CLR,0.00,WeatherDisplay:10.34,2013-08-18 05:40:00,
2013-08-18 01:45:00,59.4,54.2,30.44,North,2,0.0,0.0,83,0.00,CLR,CLR,0.00,WeatherDisplay:10.34,2013-08-18 05:45:00,
2013-08-18 01:50:00,59.4,54.2,30.44,North,1,0.0,0.0,83,0.00,CLR,CLR,0.00,WeatherDisplay:10.34,2013-08-18 05:50:00,
2013-08-18 01:55:00,59.4,54.2,30.44,North,1,0.0,0.0,83,0.00,CLR,CLR,0.00,WeatherDisplay:10.34,2013-08-18 05:55:00,
2013-08-18 02:00:00,59.4,54.2,30.44,North,1,0.0,0.0,83,0.00,CLR,CLR,0.00,WeatherDisplay:10.34,2013-08-18 06:00:00,
2013-08-18 02:05:00,59.4,54.2,30.44,North,1,0.0,0.0,83,0.00,CLR,CLR,0.00,WeatherDisplay:10.34,2013-08-18 06:05:00,
2013-08-18 02:10:00,59.5,54.4,30.44,North,2,0.0,0.0,83,0.00,CLR,CLR,0.00,WeatherDisplay:10.34,2013-08-18 06:10:00,
2013-08-18 02:15:00,59.5,54.4,30.44,North,2,0.0,0.0,83,0.00,CLR,CLR,0.00,WeatherDisplay:10.34,2013-08-18 06:15:00,
2013-08-18 02:20:00,59.5,54.4,30.44,North,1,0.0,0.0,83,0.00,CLR,CLR,0.00,WeatherDisplay:10.34,2013-08-18 06:20:00,
2013-08-18 02:25:00,59.4,53.9,30.44,North,1,0.0,0.0,82,0.00,CLR,CLR,0.00,WeatherDisplay:10.34,2013-08-18 06:25:00,
2013-08-18 02:30:00,59.4,53.9,30.43,North,1,0.0,0.0,82,0.00,CLR,CLR,0.00,WeatherDisplay:10.34,2013-08-18 06:30:00,
2013-08-18 02:35:00,59.4,53.9,30.40,North,1,0.0,0.0,82,0.00,CLR,CLR,0.00,WeatherDisplay:10.34,2013-08-18 06:35:00,
2013-08-18 02:40:00,59.2,53.7,30.40,North,1,0.0,0.0,82,0.00,CLR,CLR,0.00,WeatherDisplay:10.34,2013-08-18 06:40:00,
2013-08-18 02:45:00,59.4,53.9,30.40,North,2,0.0,0.0,82,0.00,CLR,CLR,0.00,WeatherDisplay:10.34,2013-08-18 06:45:00,
2013-08-18 02:50:00,59.2,53.4,30.43,North,1,0.0,0.0,81,0.00,CLR,CLR,0.00,WeatherDisplay:10.34,2013-08-18 06:50:00,
2013-08-18 02:55:00,59.2,53.4,30.43,North,2,0.0,0.0,81,0.00,CLR,CLR,0.00,WeatherDisplay:10.34,2013-08-18 06:55:00,
2013-08-18 03:00:00,59.0,53.2,30.44,North,1,0.0,0.0,81,0.00,CLR,CLR,0.00,WeatherDisplay:10.34,2013-08-18 07:00:00,
2013-08-18 03:05:00,58.8,53.0,30.44,North,1,0.0,0.0,81,0.00,CLR,CLR,0.00,WeatherDisplay:10.34,2013-08-18 07:05:00,
2013-08-18 03:10:00,58.8,53.0,30.44,North,2,0.0,0.0,81,0.00,CLR,CLR,0.00,WeatherDisplay:10.34,2013-08-18 07:10:00,
2013-08-18 03:15:00,58.6,52.8,30.44,North,1,0.0,0.0,81,0.00,CLR,CLR,0.00,WeatherDisplay:10.34,2013-08-18 07:15:00,
2013-08-18 03:20:00,58.5,52.6,30.41,North,1,0.0,0.0,81,0.00,CLR,CLR,0.00,WeatherDisplay:10.34,2013-08-18 07:20:00,
2013-08-18 03:25:00,58.5,52.6,30.41,North,2,0.0,0.0,81,0.00,CLR,CLR,0.00,WeatherDisplay:10.34,2013-08-18 07:25:00,
2013-08-18 03:30:00,58.5,52.6,30.41,North,2,0.0,0.0,81,0.00,CLR,CLR,0.00,WeatherDisplay:10.34,2013-08-18 07:30:00,
2013-08-18 03:35:00,58.5,52.6,30.44,North,2,0.0,0.0,81,0.00,CLR,CLR,0.00,WeatherDisplay:10.34,2013-08-18 07:35:00,
2013-08-18 03:40:00,58.5,52.6,30.44,North,2,0.0,0.0,81,0.00,CLR,CLR,0.00,WeatherDisplay:10.34,2013-08-18 07:40:00,
2013-08-18 03:45:00,58.5,52.6,30.44,North,2,0.0,0.0,81,0.00,CLR,CLR,0.00,WeatherDisplay:10.34,2013-08-18 07:45:00,
2013-08-18 03:50:00,58.5,52.6,30.44,North,2,0.0,0.0,81,0.00,CLR,CLR,0.00,WeatherDisplay:10.34,2013-08-18 07:50:00,
2013-08-18 03:55:00,58.5,52.6,30.44,North,2,0.0,0.0,81,0.00,CLR,CLR,0.00,WeatherDisplay:10.34,2013-08-18 07:55:00,
2013-08-18 04:00:00,58.5,52.6,30.44,North,2,0.0,0.0,81,0.00,CLR,CLR,0.00,WeatherDisplay:10.34,2013-08-18 08:00:00,
2013-08-18 04:05:00,58.5,52.6,30.44,North,2,0.0,0.0,81,0.00,CLR,CLR,0.00,WeatherDisplay:10.34,2013-08-18 08:05:00,
2013-08-18 04:10:00,58.5,52.3,30.44,North,2,0.0,0.0,80,0.00,CLR,CLR,0.00,WeatherDisplay:10.34,2013-08-18 08:10:00,
2013-08-18 04:15:00,58.3,52.1,30.44,North,2,0.0,0.0,80,0.00,CLR,CLR,0.00,WeatherDisplay:10.34,2013-08-18 08:15:00,
2013-08-18 04:20:00,58.1,52.0,30.44,North,2,0.0,0.0,80,0.00,CLR,CLR,0.00,WeatherDisplay:10.34,2013-08-18 08:20:00,
2013-08-18 04:25:00,58.1,52.3,30.44,North,2,0.0,0.0,81,0.00,CLR,CLR,0.00,WeatherDisplay:10.34,2013-08-18 08:25:00,
2013-08-18 04:30:00,57.9,52.1,30.44,North,2,0.0,0.0,81,0.00,CLR,CLR,0.00,WeatherDisplay:10.34,2013-08-18 08:30:00,
2013-08-18 04:35:00,57.9,52.5,30.41,North,2,0.0,0.0,82,0.00,CLR,CLR,0.00,WeatherDisplay:10.34,2013-08-18 08:35:00,
2013-08-18 04:40:00,57.9,52.5,30.41,North,2,0.0,0.0,82,0.00,CLR,CLR,0.00,WeatherDisplay:10.34,2013-08-18 08:40:00,
2013-08-18 04:45:00,57.7,52.3,30.41,North,5,0.0,0.0,82,0.00,CLR,CLR,0.00,WeatherDisplay:10.34,2013-08-18 08:45:00,
2013-08-18 04:50:00,57.7,52.3,30.41,North,6,0.0,0.0,82,0.00,CLR,CLR,0.00,WeatherDisplay:10.34,2013-08-18 08:50:00,
2013-08-18 04:55:00,57.7,52.3,30.41,North,5,0.0,0.0,82,0.00,CLR,CLR,0.00,WeatherDisplay:10.34,2013-08-18 08:55:00,
2013-08-18 05:00:00,57.7,52.3,30.41,North,5,0.0,0.0,82,0.00,CLR,CLR,0.00,WeatherDisplay:10.34,2013-08-18 09:00:00,
2013-08-18 05:05:00,57.7,52.3,30.41,North,5,0.0,0.0,82,0.00,CLR,CLR,0.00,WeatherDisplay:10.34,2013-08-18 09:05:00,
2013-08-18 05:10:00,57.6,52.1,30.41,North,5,0.0,0.0,82,0.00,CLR,CLR,0.00,WeatherDisplay:10.34,2013-08-18 09:10:00,
2013-08-18 05:15:00,57.7,52.3,30.41,NNE,13,0.0,0.0,82,0.00,CLR,CLR,0.00,WeatherDisplay:10.34,2013-08-18 09:15:00,
2013-08-18 05:20:00,57.6,52.1,30.41,North,7,0.0,0.0,82,0.00,CLR,CLR,0.00,WeatherDisplay:10.34,2013-08-18 09:20:00,
2013-08-18 05:25:00,57.6,52.1,30.41,North,7,0.0,0.0,82,0.00,CLR,CLR,0.00,WeatherDisplay:10.34,2013-08-18 09:25:00,
2013-08-18 05:30:00,57.6,52.1,30.41,North,7,0.0,0.0,82,0.00,CLR,CLR,0.00,WeatherDisplay:10.34,2013-08-18 09:30:00,
2013-08-18 05:35:00,57.7,52.3,30.41,North,7,0.0,0.0,82,0.00,CLR,CLR,0.00,WeatherDisplay:10.34,2013-08-18 09:35:00,
2013-08-18 05:40:00,57.9,52.8,30.41,North,7,0.0,0.0,83,0.00,CLR,CLR,0.00,WeatherDisplay:10.34,2013-08-18 09:40:00,
2013-08-18 05:45:00,57.9,52.8,30.41,NNE,15,0.0,0.0,83,0.00,CLR,CLR,0.00,WeatherDisplay:10.34,2013-08-18 09:45:00,
2013-08-18 05:50:00,57.9,52.8,30.41,North,7,0.0,0.0,83,0.00,CLR,CLR,0.00,WeatherDisplay:10.34,2013-08-18 09:50:00,
2013-08-18 05:55:00,57.7,52.6,30.41,North,6,0.0,0.0,83,0.00,CLR,CLR,0.00,WeatherDisplay:10.34,2013-08-18 09:55:00,
2013-08-18 06:00:00,57.6,52.1,30.41,North,6,0.0,0.0,82,0.00,CLR,CLR,0.00,WeatherDisplay:10.34,2013-08-18 10:00:00,
2013-08-18 06:05:00,57.6,52.1,30.44,North,6,0.0,0.0,82,0.00,CLR,CLR,0.00,WeatherDisplay:10.34,2013-08-18 10:05:00,
2013-08-18 06:10:00,57.4,51.9,30.44,North,6,0.0,0.0,82,0.00,CLR,CLR,0.00,WeatherDisplay:10.34,2013-08-18 10:10:00,
2013-08-18 06:15:00,57.4,51.9,30.44,North,6,0.0,0.0,82,0.00,CLR,CLR,0.00,WeatherDisplay:10.34,2013-08-18 10:15:00,
2013-08-18 06:21:00,57.4,51.9,30.44,North,6,0.0,0.0,82,0.00,CLR,CLR,0.00,WeatherDisplay:10.34,2013-08-18 10:21:00,
2013-08-18 06:26:00,57.6,52.4,30.44,North,6,0.0,0.0,83,0.00,CLR,CLR,0.00,WeatherDisplay:10.34,2013-08-18 10:26:00,
2013-08-18 06:31:00,57.7,52.6,30.44,North,6,0.0,0.0,83,0.00,CLR,CLR,0.00,WeatherDisplay:10.34,2013-08-18 10:31:00,
2013-08-18 06:36:00,57.9,52.8,30.44,North,6,0.0,0.0,83,0.00,CLR,CLR,0.00,WeatherDisplay:10.34,2013-08-18 10:36:00,
2013-08-18 06:41:00,57.9,52.5,30.44,North,6,0.0,0.0,82,0.00,CLR,CLR,0.00,WeatherDisplay:10.34,2013-08-18 10:41:00,
2013-08-18 06:46:00,58.1,52.6,30.44,North,5,0.0,0.0,82,0.00,CLR,CLR,0.00,WeatherDisplay:10.34,2013-08-18 10:46:00,
2013-08-18 06:51:00,58.1,52.6,30.44,North,5,0.0,0.0,82,0.00,CLR,CLR,0.00,WeatherDisplay:10.34,2013-08-18 10:51:00,
2013-08-18 06:56:00,58.1,52.6,30.44,North,5,0.0,0.0,82,0.00,CLR,CLR,0.00,WeatherDisplay:10.34,2013-08-18 10:56:00,
2013-08-18 07:01:00,58.3,52.8,30.44,North,5,0.0,0.0,82,0.00,CLR,CLR,0.00,WeatherDisplay:10.34,2013-08-18 11:01:00,
2013-08-18 07:06:00,58.5,53.3,30.44,North,5,0.0,0.0,83,0.00,CLR,CLR,0.00,WeatherDisplay:10.34,2013-08-18 11:06:00,
2013-08-18 07:11:00,58.5,53.3,30.44,North,4,0.0,0.0,83,0.00,CLR,CLR,0.00,WeatherDisplay:10.34,2013-08-18 11:11:00,
2013-08-18 07:16:00,58.8,53.7,30.44,North,4,0.0,0.0,83,0.00,CLR,CLR,0.00,WeatherDisplay:10.34,2013-08-18 11:16:00,
2013-08-18 07:21:00,59.0,53.8,30.41,North,4,0.0,0.0,83,0.00,CLR,CLR,0.00,WeatherDisplay:10.34,2013-08-18 11:21:00,
2013-08-18 07:26:00,59.2,54.0,30.41,North,4,0.0,0.0,83,0.00,CLR,CLR,0.00,WeatherDisplay:10.34,2013-08-18 11:26:00,
2013-08-18 07:31:00,59.4,54.2,30.41,North,5,0.0,0.0,83,0.00,CLR,CLR,0.00,WeatherDisplay:10.34,2013-08-18 11:31:00,
2013-08-18 07:36:00,59.5,54.7,30.41,North,5,0.0,0.0,84,0.00,CLR,CLR,0.00,WeatherDisplay:10.34,2013-08-18 11:36:00,
2013-08-18 07:41:00,59.7,54.9,30.41,North,5,0.0,0.0,84,0.00,CLR,CLR,0.00,WeatherDisplay:10.34,2013-08-18 11:41:00,
2013-08-18 07:46:00,59.9,55.1,30.42,North,5,0.0,0.0,84,0.00,CLR,CLR,0.00,WeatherDisplay:10.34,2013-08-18 11:46:00,
2013-08-18 07:51:00,60.1,54.9,30.44,North,4,0.0,0.0,83,0.00,CLR,CLR,0.00,WeatherDisplay:10.34,2013-08-18 11:51:00,
2013-08-18 07:56:00,60.3,55.1,30.44,North,2,0.0,0.0,83,0.00,CLR,CLR,0.00,WeatherDisplay:10.34,2013-08-18 11:56:00,
2013-08-18 08:01:00,60.3,55.1,30.45,North,7,0.0,0.0,83,0.00,CLR,CLR,0.00,WeatherDisplay:10.34,2013-08-18 12:01:00,
2013-08-18 08:06:00,60.4,55.3,30.42,North,3,0.0,0.0,83,0.00,CLR,CLR,0.00,WeatherDisplay:10.34,2013-08-18 12:06:00,
2013-08-18 08:11:00,60.6,55.4,30.42,North,1,0.0,3.0,83,0.00,CLR,CLR,0.00,WeatherDisplay:10.34,2013-08-18 12:11:00,
2013-08-18 08:16:00,61.0,56.1,30.42,North,1,0.0,0.0,84,0.00,CLR,CLR,0.00,WeatherDisplay:10.34,2013-08-18 12:16:00,
2013-08-18 08:21:00,61.2,56.0,30.44,North,1,0.0,0.0,83,0.00,CLR,CLR,0.00,WeatherDisplay:10.34,2013-08-18 12:21:00,
2013-08-18 08:26:00,61.3,56.1,30.45,North,1,0.0,3.0,83,0.00,CLR,CLR,0.00,WeatherDisplay:10.34,2013-08-18 12:26:00,
2013-08-18 08:31:00,61.7,56.8,30.45,WNW,286,0.0,2.0,84,0.00,CLR,CLR,0.00,WeatherDisplay:10.34,2013-08-18 12:31:00,
2013-08-18 08:36:00,61.9,56.7,30.44,WNW,284,0.0,0.0,83,0.00,CLR,CLR,0.00,WeatherDisplay:10.34,2013-08-18 12:36:00,
2013-08-18 08:41:00,62.4,57.2,30.44,West,280,0.0,3.0,83,0.00,CLR,CLR,0.00,WeatherDisplay:10.34,2013-08-18 12:41:00,
2013-08-18 08:46:00,62.8,57.5,30.44,WNW,292,0.0,0.0,83,0.00,CLR,CLR,0.00,WeatherDisplay:10.34,2013-08-18 12:46:00,
2013-08-18 08:51:00,63.1,57.6,30.41,West,272,0.0,3.0,82,0.00,CLR,CLR,0.00,WeatherDisplay:10.34,2013-08-18 12:51:00,
2013-08-18 08:56:00,63.3,57.4,30.41,West,270,0.0,2.0,81,0.00,CLR,CLR,0.00,WeatherDisplay:10.34,2013-08-18 12:56:00,
2013-08-18 09:01:00,63.5,57.2,30.41,West,262,0.0,3.0,80,0.00,CLR,CLR,0.00,WeatherDisplay:10.34,2013-08-18 13:01:00,
2013-08-18 09:06:00,63.9,57.6,30.41,WSW,244,3.0,6.0,80,0.00,CLR,CLR,0.00,WeatherDisplay:10.34,2013-08-18 13:06:00,
2013-08-18 09:11:00,64.2,57.6,30.41,West,269,4.0,6.0,79,0.00,CLR,CLR,0.00,WeatherDisplay:10.34,2013-08-18 13:11:00,
2013-08-18 09:16:00,64.4,57.4,30.41,West,270,3.0,5.0,78,0.00,CLR,CLR,0.00,WeatherDisplay:10.34,2013-08-18 13:16:00,
2013-08-18 09:21:00,64.8,57.0,30.41,West,263,4.0,4.0,76,0.00,CLR,CLR,0.00,WeatherDisplay:10.34,2013-08-18 13:21:00,
2013-08-18 09:26:00,64.9,56.5,30.41,West,262,0.0,3.0,74,0.00,CLR,CLR,0.00,WeatherDisplay:10.34,2013-08-18 13:26:00,
2013-08-18 09:31:00,65.1,55.9,30.41,West,262,0.0,3.0,72,0.00,CLR,CLR,0.00,WeatherDisplay:10.34,2013-08-18 13:31:00,
2013-08-18 09:36:00,65.3,55.7,30.41,West,264,0.0,0.0,71,0.00,CLR,CLR,0.00,WeatherDisplay:10.34,2013-08-18 13:36:00,
2013-08-18 09:41:00,65.5,55.4,30.41,WSW,255,3.0,5.0,70,0.00,CLR,CLR,0.00,WeatherDisplay:10.34,2013-08-18 13:41:00,
2013-08-18 09:46:00,65.7,55.2,30.41,West,259,0.0,6.0,69,0.00,CLR,CLR,0.00,WeatherDisplay:10.34,2013-08-18 13:46:00,
2013-08-18 09:51:00,66.0,54.7,30.41,SW,232,3.0,6.0,67,0.00,CLR,CLR,0.00,WeatherDisplay:10.34,2013-08-18 13:51:00,
2013-08-18 09:56:00,66.2,54.1,30.41,West,277,4.0,6.0,65,0.00,CLR,CLR,0.00,WeatherDisplay:10.34,2013-08-18 13:56:00,
2013-08-18 10:01:00,66.6,53.6,30.41,West,274,3.0,6.0,63,0.00,CLR,CLR,0.00,WeatherDisplay:10.34,2013-08-18 14:01:00,
2013-08-18 10:06:00,66.7,53.3,30.41,NNE,19,3.0,7.0,62,0.00,CLR,CLR,0.00,WeatherDisplay:10.34,2013-08-18 14:06:00,
2013-08-18 10:11:00,66.7,51.0,30.41,West,270,3.0,7.0,57,0.00,CLR,CLR,0.00,WeatherDisplay:10.34,2013-08-18 14:11:00,
2013-08-18 10:16:00,67.1,49.9,30.41,NNW,336,3.0,5.0,54,0.00,CLR,CLR,0.00,WeatherDisplay:10.34,2013-08-18 14:16:00,
2013-08-18 10:21:00,67.5,49.2,30.41,NNE,25,4.0,5.0,52,0.00,CLR,CLR,0.00,WeatherDisplay:10.34,2013-08-18 14:21:00,
2013-08-18 10:26:00,67.6,49.9,30.41,WNW,295,4.0,5.0,53,0.00,CLR,CLR,0.00,WeatherDisplay:10.34,2013-08-18 14:26:00,
2013-08-18 10:31:00,67.8,49.0,30.41,ENE,77,5.0,6.0,51,0.00,CLR,CLR,0.00,WeatherDisplay:10.34,2013-08-18 14:31:00,
2013-08-18 10:36:00,68.0,49.2,30.41,WSW,237,4.0,6.0,51,0.00,CLR,CLR,0.00,WeatherDisplay:10.34,2013-08-18 14:36:00,
2013-08-18 10:41:00,68.7,49.3,30.41,WNW,287,4.0,7.0,50,0.00,CLR,CLR,0.00,WeatherDisplay:10.34,2013-08-18 14:41:00,
2013-08-18 10:46:00,68.9,50.0,30.41,SW,236,4.0,5.0,51,0.00,CLR,CLR,0.00,WeatherDisplay:10.34,2013-08-18 14:46:00,
2013-08-18 10:51:00,69.3,49.3,30.41,NNE,23,4.0,6.0,49,0.00,CLR,CLR,0.00,WeatherDisplay:10.34,2013-08-18 14:51:00,
2013-08-18 10:56:00,69.4,50.0,30.41,NNE,16,5.0,6.0,50,0.00,CLR,CLR,0.00,WeatherDisplay:10.34,2013-08-18 14:56:00,
2013-08-18 11:01:00,69.3,49.8,30.41,NNE,15,4.0,5.0,50,0.00,CLR,CLR,0.00,WeatherDisplay:10.34,2013-08-18 15:01:00,
2013-08-18 11:06:00,69.3,50.4,30.41,West,281,3.0,6.0,51,0.00,CLR,CLR,0.00,WeatherDisplay:10.34,2013-08-18 15:06:00,
2013-08-18 11:11:00,69.3,50.9,30.41,NNE,14,0.0,3.0,52,0.00,CLR,CLR,0.00,WeatherDisplay:10.34,2013-08-18 15:11:00,
2013-08-18 11:16:00,69.3,50.4,30.41,North,8,4.0,7.0,51,0.00,CLR,CLR,0.00,WeatherDisplay:10.34,2013-08-18 15:16:00,
2013-08-18 11:21:00,69.4,50.0,30.41,North,0,4.0,7.0,50,0.00,CLR,CLR,0.00,WeatherDisplay:10.34,2013-08-18 15:21:00,
2013-08-18 11:26:00,69.6,50.2,30.41,North,0,3.0,5.0,50,0.00,CLR,CLR,0.00,WeatherDisplay:10.34,2013-08-18 15:26:00,
2013-08-18 11:31:00,69.8,50.3,30.41,WNW,300,4.0,6.0,50,0.00,CLR,CLR,0.00,WeatherDisplay:10.34,2013-08-18 15:31:00,
2013-08-18 11:36:00,70.0,50.5,30.41,NNE,13,4.0,6.0,50,0.00,CLR,CLR,0.00,WeatherDisplay:10.34,2013-08-18 15:36:00,
2013-08-18 11:41:00,69.8,50.3,30.41,NNW,339,4.0,6.0,50,0.00,CLR,CLR,0.00,WeatherDisplay:10.34,2013-08-18 15:41:00,
2013-08-18 11:46:00,69.6,49.1,30.41,NNE,15,4.0,5.0,48,0.00,CLR,CLR,0.00,WeatherDisplay:10.34,2013-08-18 15:46:00,
2013-08-18 11:51:00,69.6,49.6,30.41,North,4,4.0,5.0,49,0.00,CLR,CLR,0.00,WeatherDisplay:10.34,2013-08-18 15:51:00,
2013-08-18 11:56:00,69.6,49.1,30.41,NNE,14,0.0,6.0,48,0.00,CLR,CLR,0.00,WeatherDisplay:10.34,2013-08-18 15:56:00,
2013-08-18 12:01:00,69.6,49.1,30.41,North,5,4.0,4.0,48,0.00,CLR,CLR,0.00,WeatherDisplay:10.34,2013-08-18 16:01:00,
2013-08-18 12:06:00,69.8,49.2,30.41,NNE,22,4.0,6.0,48,0.00,CLR,CLR,0.00,WeatherDisplay:10.34,2013-08-18 16:06:00,
2013-08-18 12:11:00,69.8,50.3,30.41,West,276,4.0,6.0,50,0.00,CLR,CLR,0.00,WeatherDisplay:10.34,2013-08-18 16:11:00,
2013-08-18 12:17:00,69.8,49.2,30.41,WSW,253,4.0,4.0,48,0.00,CLR,CLR,0.00,WeatherDisplay:10.34,2013-08-18 16:17:00,
2013-08-18 12:22:00,69.8,49.2,30.41,WSW,240,5.0,5.0,48,0.00,CLR,CLR,0.00,WeatherDisplay:10.34,2013-08-18 16:22:00,
2013-08-18 12:27:00,70.0,49.4,30.41,NNE,12,0.0,6.0,48,0.00,CLR,CLR,0.00,WeatherDisplay:10.34,2013-08-18 16:27:00,
2013-08-18 12:32:00,70.2,49.0,30.38,WSW,255,5.0,6.0,47,0.00,CLR,CLR,0.00,WeatherDisplay:10.34,2013-08-18 16:32:00,
2013-08-18 12:37:00,70.3,49.1,30.38,SW,228,3.0,3.0,47,0.00,CLR,CLR,0.00,WeatherDisplay:10.34,2013-08-18 16:37:00,
2013-08-18 12:42:00,70.3,49.1,30.38,NNE,13,3.0,7.0,47,0.00,CLR,CLR,0.00,WeatherDisplay:10.34,2013-08-18 16:42:00,
2013-08-18 12:47:00,70.5,48.7,30.38,WNW,285,4.0,5.0,46,0.00,CLR,CLR,0.00,WeatherDisplay:10.34,2013-08-18 16:47:00,
2013-08-18 12:52:00,70.7,50.0,30.38,WSW,241,0.0,3.0,48,0.00,CLR,CLR,0.00,WeatherDisplay:10.34,2013-08-18 16:52:00,
2013-08-18 12:57:00,70.7,48.9,30.38,North,9,4.0,7.0,46,0.00,CLR,CLR,0.00,WeatherDisplay:10.34,2013-08-18 16:57:00,
2013-08-18 13:02:00,70.9,49.6,30.38,WNW,300,3.0,3.0,47,0.00,CLR,CLR,0.00,WeatherDisplay:10.34,2013-08-18 17:02:00,
2013-08-18 13:07:00,71.1,49.8,30.38,West,267,4.0,6.0,47,0.00,CLR,CLR,0.00,WeatherDisplay:10.34,2013-08-18 17:07:00,
2013-08-18 13:12:00,71.2,48.8,30.38,West,269,4.0,9.0,45,0.00,CLR,CLR,0.00,WeatherDisplay:10.34,2013-08-18 17:12:00,
2013-08-18 13:17:00,71.4,49.0,30.38,South,182,7.0,8.0,45,0.00,CLR,CLR,0.00,WeatherDisplay:10.34,2013-08-18 17:17:00,
2013-08-18 13:22:00,71.4,49.0,30.38,WSW,246,4.0,7.0,45,0.00,CLR,CLR,0.00,WeatherDisplay:10.34,2013-08-18 17:22:00,
2013-08-18 13:27:00,71.6,49.1,30.38,NW,313,4.0,5.0,45,0.00,CLR,CLR,0.00,WeatherDisplay:10.34,2013-08-18 17:27:00,
2013-08-18 13:32:00,71.6,49.1,30.38,WSW,237,4.0,4.0,45,0.00,CLR,CLR,0.00,WeatherDisplay:10.34,2013-08-18 17:32:00,
2013-08-18 13:37:00,71.6,49.1,30.38,WNW,296,5.0,5.0,45,0.00,CLR,CLR,0.00,WeatherDisplay:10.34,2013-08-18 17:37:00,
2013-08-18 13:42:00,71.6,49.7,30.38,NW,326,4.0,5.0,46,0.00,CLR,CLR,0.00,WeatherDisplay:10.34,2013-08-18 17:42:00,
2013-08-18 13:47:00,71.4,49.6,30.38,WSW,240,4.0,7.0,46,0.00,CLR,CLR,0.00,WeatherDisplay:10.34,2013-08-18 17:47:00,
2013-08-18 13:52:00,71.6,49.7,30.38,WSW,251,5.0,7.0,46,0.00,CLR,CLR,0.00,WeatherDisplay:10.34,2013-08-18 17:52:00,
2013-08-18 13:57:00,71.8,50.5,30.38,West,268,4.0,7.0,47,0.00,CLR,CLR,0.00,WeatherDisplay:10.34,2013-08-18 17:57:00,
2013-08-18 14:02:00,71.8,49.9,30.38,WSW,250,4.0,6.0,46,0.00,CLR,CLR,0.00,WeatherDisplay:10.34,2013-08-18 18:02:00,
2013-08-18 14:07:00,72.0,50.0,30.38,NE,43,3.0,5.0,46,0.00,FEW,FEW,0.00,WeatherDisplay:10.34,2013-08-18 18:07:00,
2013-08-18 14:12:00,72.0,51.2,30.38,WSW,243,5.0,8.0,48,0.00,FEW,FEW,0.00,WeatherDisplay:10.34,2013-08-18 18:12:00,
2013-08-18 14:17:00,72.1,50.8,30.38,South,189,4.0,5.0,47,0.00,FEW,FEW,0.00,WeatherDisplay:10.34,2013-08-18 18:17:00,
2013-08-18 14:22:00,72.1,50.8,30.34,SW,232,4.0,6.0,47,0.00,FEW,FEW,0.00,WeatherDisplay:10.34,2013-08-18 18:22:00,
2013-08-18 14:27:00,72.1,50.2,30.34,West,277,3.0,7.0,46,0.00,FEW,FEW,0.00,WeatherDisplay:10.34,2013-08-18 18:27:00,
2013-08-18 14:32:00,72.1,50.2,30.34,WSW,249,0.0,0.0,46,0.00,FEW,FEW,0.00,WeatherDisplay:10.34,2013-08-18 18:32:00,
2013-08-18 14:37:00,72.0,50.6,30.34,NNE,24,3.0,3.0,47,0.00,FEW,FEW,0.00,WeatherDisplay:10.34,2013-08-18 18:37:00,
2013-08-18 14:42:00,72.1,51.4,30.34,NNE,19,4.0,6.0,48,0.00,FEW,FEW,0.00,WeatherDisplay:10.34,2013-08-18 18:42:00,
2013-08-18 14:47:00,72.1,51.4,30.34,NW,306,4.0,6.0,48,0.00,FEW,FEW,0.00,WeatherDisplay:10.34,2013-08-18 18:47:00,
2013-08-18 14:52:00,72.1,51.4,30.34,NNW,346,4.0,6.0,48,0.00,FEW,FEW,0.00,WeatherDisplay:10.34,2013-08-18 18:52:00,
2013-08-18 14:57:00,72.1,50.8,30.34,WNW,292,4.0,7.0,47,0.00,FEW,FEW,0.00,WeatherDisplay:10.34,2013-08-18 18:57:00,
2013-08-18 15:02:00,72.1,50.8,30.34,North,351,0.0,3.0,47,0.00,FEW,FEW,0.00,WeatherDisplay:10.34,2013-08-18 19:02:00,
2013-08-18 15:07:00,72.0,51.8,30.35,NW,312,3.0,3.0,49,0.00,CLR,CLR,0.00,WeatherDisplay:10.34,2013-08-18 19:07:00,
2013-08-18 15:12:00,72.1,51.4,30.35,West,267,4.0,6.0,48,0.00,CLR,CLR,0.00,WeatherDisplay:10.34,2013-08-18 19:12:00,
2013-08-18 15:17:00,72.3,51.0,30.35,North,1,4.0,7.0,47,0.00,CLR,CLR,0.00,WeatherDisplay:10.34,2013-08-18 19:17:00,
2013-08-18 15:22:00,72.3,50.4,30.35,WNW,284,3.0,5.0,46,0.00,CLR,CLR,0.00,WeatherDisplay:10.34,2013-08-18 19:22:00,
2013-08-18 15:27:00,72.3,51.0,30.35,NE,41,4.0,7.0,47,0.00,CLR,CLR,0.00,WeatherDisplay:10.34,2013-08-18 19:27:00,
2013-08-18 15:33:00,72.3,50.4,30.32,NE,36,4.0,6.0,46,0.00,CLR,CLR,0.00,WeatherDisplay:10.34,2013-08-18 19:33:00,
2013-08-18 15:38:00,72.3,50.4,30.32,NNE,15,4.0,6.0,46,0.00,CLR,CLR,0.00,WeatherDisplay:10.34,2013-08-18 19:38:00,
2013-08-18 15:43:00,72.1,50.2,30.32,SW,228,4.0,6.0,46,0.00,CLR,CLR,0.00,WeatherDisplay:10.34,2013-08-18 19:43:00,
2013-08-18 15:48:00,72.1,49.6,30.32,SW,235,5.0,7.0,45,0.00,CLR,CLR,0.00,WeatherDisplay:10.34,2013-08-18 19:48:00,
2013-08-18 15:53:00,72.1,50.2,30.32,South,190,5.0,7.0,46,0.00,CLR,CLR,0.00,WeatherDisplay:10.34,2013-08-18 19:53:00,
2013-08-18 15:58:00,72.1,50.2,30.32,WSW,255,3.0,3.0,46,0.00,CLR,CLR,0.00,WeatherDisplay:10.34,2013-08-18 19:58:00,
2013-08-18 16:03:00,72.1,50.2,30.32,WSW,249,0.0,3.0,46,0.00,CLR,CLR,0.00,WeatherDisplay:10.34,2013-08-18 20:03:00,
2013-08-18 16:08:00,72.1,50.8,30.32,WSW,242,3.0,7.0,47,0.00,CLR,CLR,0.00,WeatherDisplay:10.34,2013-08-18 20:08:00,
2013-08-18 16:13:00,72.0,51.2,30.32,West,267,0.0,3.0,48,0.00,CLR,CLR,0.00,WeatherDisplay:10.34,2013-08-18 20:13:00,
2013-08-18 16:18:00,72.1,51.4,30.32,WSW,252,3.0,6.0,48,0.00,CLR,CLR,0.00,WeatherDisplay:10.34,2013-08-18 20:18:00,
2013-08-18 16:23:00,72.1,51.4,30.32,SW,221,3.0,6.0,48,0.00,CLR,CLR,0.00,WeatherDisplay:10.34,2013-08-18 20:23:00,
2013-08-18 16:28:00,72.1,51.4,30.32,West,270,0.0,3.0,48,0.00,CLR,CLR,0.00,WeatherDisplay:10.34,2013-08-18 20:28:00,
2013-08-18 16:33:00,72.1,51.4,30.32,NNW,343,0.0,3.0,48,0.00,CLR,CLR,0.00,WeatherDisplay:10.34,2013-08-18 20:33:00,
2013-08-18 16:38:00,72.1,51.4,30.32,West,281,4.0,6.0,48,0.00,CLR,CLR,0.00,WeatherDisplay:10.34,2013-08-18 20:38:00,
2013-08-18 16:43:00,72.0,51.2,30.32,West,276,0.0,0.0,48,0.00,CLR,CLR,0.00,WeatherDisplay:10.34,2013-08-18 20:43:00,
2013-08-18 16:48:00,72.0,51.8,30.29,West,275,0.0,0.0,49,0.00,CLR,CLR,0.00,WeatherDisplay:10.34,2013-08-18 20:48:00,
2013-08-18 16:53:00,72.0,51.8,30.29,West,275,0.0,0.0,49,0.00,CLR,CLR,0.00,WeatherDisplay:10.34,2013-08-18 20:53:00,
2013-08-18 16:58:00,71.8,52.7,30.29,NW,308,3.0,3.0,51,0.00,CLR,CLR,0.00,WeatherDisplay:10.34,2013-08-18 20:58:00,
2013-08-18 17:03:00,71.6,52.0,30.29,WSW,251,0.0,3.0,50,0.00,CLR,CLR,0.00,WeatherDisplay:10.34,2013-08-18 21:03:00,
2013-08-18 17:08:00,71.6,53.0,30.29,WSW,251,0.0,0.0,52,0.00,CLR,CLR,0.00,WeatherDisplay:10.34,2013-08-18 21:08:00,
2013-08-18 17:13:00,71.6,54.1,30.29,WSW,255,3.0,3.0,54,0.00,CLR,CLR,0.00,WeatherDisplay:10.34,2013-08-18 21:13:00,
2013-08-18 17:18:00,71.4,54.4,30.29,WSW,253,0.0,3.0,55,0.00,CLR,CLR,0.00,WeatherDisplay:10.34,2013-08-18 21:18:00,
2013-08-18 17:23:00,71.4,54.9,30.29,WSW,253,0.0,0.0,56,0.00,CLR,CLR,0.00,WeatherDisplay:10.34,2013-08-18 21:23:00,
2013-08-18 17:28:00,71.2,54.7,30.29,NNW,339,3.0,5.0,56,0.00,CLR,CLR,0.00,WeatherDisplay:10.34,2013-08-18 21:28:00,
2013-08-18 17:33:00,71.2,54.2,30.29,NNW,339,0.0,0.0,55,0.00,CLR,CLR,0.00,WeatherDisplay:10.34,2013-08-18 21:33:00,
2013-08-18 17:38:00,71.2,55.7,30.29,NNW,339,0.0,0.0,58,0.00,CLR,CLR,0.00,WeatherDisplay:10.34,2013-08-18 21:38:00,
2013-08-18 17:43:00,71.1,56.5,30.29,NNW,339,0.0,0.0,60,0.00,CLR,CLR,0.00,WeatherDisplay:10.34,2013-08-18 21:43:00,
2013-08-18 17:48:00,70.9,57.2,30.29,NNW,339,0.0,0.0,62,0.00,CLR,CLR,0.00,WeatherDisplay:10.34,2013-08-18 21:48:00,
2013-08-18 17:53:00,70.9,57.7,30.29,NNW,339,0.0,0.0,63,0.00,CLR,CLR,0.00,WeatherDisplay:10.34,2013-08-18 21:53:00,
2013-08-18 17:58:00,70.7,58.4,30.29,NNW,339,0.0,0.0,65,0.00,CLR,CLR,0.00,WeatherDisplay:10.34,2013-08-18 21:58:00,
2013-08-18 18:03:00,70.5,58.6,30.29,NNW,339,0.0,0.0,66,0.00,CLR,CLR,0.00,WeatherDisplay:10.34,2013-08-18 22:03:00,
2013-08-18 18:08:00,70.3,58.4,30.29,NNW,339,0.0,0.0,66,0.00,CLR,CLR,0.00,WeatherDisplay:10.34,2013-08-18 22:08:00,
2013-08-18 18:13:00,70.3,58.4,30.29,NNW,339,0.0,0.0,66,0.00,CLR,CLR,0.00,WeatherDisplay:10.34,2013-08-18 22:13:00,
2013-08-18 18:18:00,70.3,58.4,30.29,NNW,339,0.0,0.0,66,0.00,CLR,CLR,0.00,WeatherDisplay:10.34,2013-08-18 22:18:00,
2013-08-18 18:23:00,70.0,58.5,30.29,NNW,339,0.0,0.0,67,0.00,CLR,CLR,0.00,WeatherDisplay:10.34,2013-08-18 22:23:00,
2013-08-18 18:28:00,70.0,58.9,30.29,NNW,339,0.0,0.0,68,0.00,CLR,CLR,0.00,WeatherDisplay:10.34,2013-08-18 22:28:00,
2013-08-18 18:33:00,69.8,58.8,30.29,NNW,339,0.0,0.0,68,0.00,CLR,CLR,0.00,WeatherDisplay:10.34,2013-08-18 22:33:00,
2013-08-18 18:38:00,69.6,59.0,30.29,NNW,339,0.0,0.0,69,0.00,CLR,CLR,0.00,WeatherDisplay:10.34,2013-08-18 22:38:00,
2013-08-18 18:43:00,69.4,59.2,30.29,NNW,339,0.0,0.0,70,0.00,CLR,CLR,0.00,WeatherDisplay:10.34,2013-08-18 22:43:00,
2013-08-18 18:48:00,69.3,59.1,30.29,NNW,339,0.0,0.0,70,0.00,CLR,CLR,0.00,WeatherDisplay:10.34,2013-08-18 22:48:00,
2013-08-18 18:53:00,68.9,58.7,30.29,NNW,339,0.0,0.0,70,0.00,CLR,CLR,0.00,WeatherDisplay:10.34,2013-08-18 22:53:00,
2013-08-18 18:58:00,68.5,58.4,30.29,NNW,339,0.0,0.0,70,0.00,CLR,CLR,0.00,WeatherDisplay:10.34,2013-08-18 22:58:00,
2013-08-18 19:03:00,68.4,58.6,30.26,NNW,339,0.0,0.0,71,0.00,CLR,CLR,0.00,WeatherDisplay:10.34,2013-08-18 23:03:00,
2013-08-18 19:08:00,68.0,58.2,30.26,NNW,339,0.0,0.0,71,0.00,CLR,CLR,0.00,WeatherDisplay:10.34,2013-08-18 23:08:00,
2013-08-18 19:13:00,67.8,58.1,30.26,NNW,339,0.0,0.0,71,0.00,CLR,CLR,0.00,WeatherDisplay:10.34,2013-08-18 23:13:00,
2013-08-18 19:18:00,67.6,57.9,30.29,NNW,339,0.0,0.0,71,0.00,CLR,CLR,0.00,WeatherDisplay:10.34,2013-08-18 23:18:00,
2013-08-18 19:23:00,67.5,57.7,30.29,NNW,339,0.0,0.0,71,0.00,CLR,CLR,0.00,WeatherDisplay:10.34,2013-08-18 23:23:00,
2013-08-18 19:28:00,67.3,57.6,30.29,NNW,339,0.0,0.0,71,0.00,CLR,CLR,0.00,WeatherDisplay:10.34,2013-08-18 23:28:00,
2013-08-18 19:33:00,67.1,57.4,30.29,NNW,339,0.0,0.0,71,0.00,CLR,CLR,0.00,WeatherDisplay:10.34,2013-08-18 23:33:00,
2013-08-18 19:38:00,66.7,57.0,30.29,NNW,339,0.0,0.0,71,0.00,CLR,CLR,0.00,WeatherDisplay:10.34,2013-08-18 23:38:00,
2013-08-18 19:43:00,66.4,56.3,30.29,NNW,339,0.0,0.0,70,0.00,CLR,CLR,0.00,WeatherDisplay:10.34,2013-08-18 23:43:00,
2013-08-18 19:48:00,66.2,56.1,30.26,NNW,339,0.0,0.0,70,0.00,CLR,CLR,0.00,WeatherDisplay:10.34,2013-08-18 23:48:00,
2013-08-18 19:53:00,65.8,56.2,30.26,NNW,339,0.0,0.0,71,0.00,CLR,CLR,0.00,WeatherDisplay:10.34,2013-08-18 23:53:00,
2013-08-18 19:58:00,65.7,56.0,30.26,NNW,339,0.0,0.0,71,0.00,CLR,CLR,0.00,WeatherDisplay:10.34,2013-08-18 23:58:00,
2013-08-18 20:03:00,65.5,55.8,30.26,NNW,339,0.0,0.0,71,0.00,CLR,CLR,0.00,WeatherDisplay:10.34,2013-08-19 00:03:00,
2013-08-18 20:08:00,65.3,56.0,30.26,NNW,339,0.0,0.0,72,0.00,CLR,CLR,0.00,WeatherDisplay:10.34,2013-08-19 00:08:00,
2013-08-18 20:13:00,65.1,55.9,30.26,NNW,339,0.0,0.0,72,0.00,CLR,CLR,0.00,WeatherDisplay:10.34,2013-08-19 00:13:00,
2013-08-18 20:18:00,64.9,55.7,30.26,NNW,339,0.0,0.0,72,0.00,CLR,CLR,0.00,WeatherDisplay:10.34,2013-08-19 00:18:00,
2013-08-18 20:23:00,64.8,55.5,30.26,NNW,339,0.0,0.0,72,0.00,CLR,CLR,0.00,WeatherDisplay:10.34,2013-08-19 00:23:00,
2013-08-18 20:28:00,64.8,55.9,30.26,NNW,339,0.0,0.0,73,0.00,CLR,CLR,0.00,WeatherDisplay:10.34,2013-08-19 00:28:00,
2013-08-18 20:33:00,64.8,55.9,30.26,NNW,339,0.0,0.0,73,0.00,CLR,CLR,0.00,WeatherDisplay:10.34,2013-08-19 00:33:00,
2013-08-18 20:38:00,64.6,56.1,30.26,NNW,339,0.0,0.0,74,0.00,CLR,CLR,0.00,WeatherDisplay:10.34,2013-08-19 00:38:00,
2013-08-18 20:43:00,64.6,56.1,30.26,NNW,339,0.0,0.0,74,0.00,CLR,CLR,0.00,WeatherDisplay:10.34,2013-08-19 00:43:00,
2013-08-18 20:48:00,64.4,55.9,30.26,NNW,339,0.0,0.0,74,0.00,CLR,CLR,0.00,WeatherDisplay:10.34,2013-08-19 00:48:00,
2013-08-18 20:53:00,64.2,56.1,30.26,NNW,339,0.0,0.0,75,0.00,CLR,CLR,0.00,WeatherDisplay:10.34,2013-08-19 00:53:00,
2013-08-18 20:58:00,64.0,56.0,30.26,NNW,339,0.0,0.0,75,0.00,CLR,CLR,0.00,WeatherDisplay:10.34,2013-08-19 00:58:00,
2013-08-18 21:03:00,64.0,56.3,30.26,NNW,339,0.0,0.0,76,0.00,CLR,CLR,0.00,WeatherDisplay:10.34,2013-08-19 01:03:00,
2013-08-18 21:08:00,64.0,56.3,30.26,NNW,339,0.0,0.0,76,0.00,CLR,CLR,0.00,WeatherDisplay:10.34,2013-08-19 01:08:00,
2013-08-18 21:13:00,64.0,56.3,30.26,NNW,339,0.0,0.0,76,0.00,CLR,CLR,0.00,WeatherDisplay:10.34,2013-08-19 01:13:00,
2013-08-18 21:18:00,64.0,56.3,30.26,NNW,339,0.0,0.0,76,0.00,CLR,CLR,0.00,WeatherDisplay:10.34,2013-08-19 01:18:00,
2013-08-18 21:24:00,63.9,56.1,30.26,NNW,339,0.0,0.0,76,0.00,CLR,CLR,0.00,WeatherDisplay:10.34,2013-08-19 01:24:00,
2013-08-18 21:29:00,63.9,56.1,30.26,NNW,339,0.0,0.0,76,0.00,CLR,CLR,0.00,WeatherDisplay:10.34,2013-08-19 01:29:00,
2013-08-18 21:34:00,63.7,56.0,30.26,NNW,339,0.0,0.0,76,0.00,CLR,CLR,0.00,WeatherDisplay:10.34,2013-08-19 01:34:00,
2013-08-18 21:39:00,63.5,56.2,30.26,NNW,339,0.0,0.0,77,0.00,CLR,CLR,0.00,WeatherDisplay:10.34,2013-08-19 01:39:00,
2013-08-18 21:44:00,63.7,56.3,30.25,NNW,339,0.0,0.0,77,0.00,CLR,CLR,0.00,WeatherDisplay:10.34,2013-08-19 01:44:00,
2013-08-18 21:49:00,63.7,56.3,30.25,NNW,339,0.0,0.0,77,0.00,CLR,CLR,0.00,WeatherDisplay:10.34,2013-08-19 01:49:00,
2013-08-18 21:54:00,63.5,56.2,30.25,NNW,339,0.0,0.0,77,0.00,CLR,CLR,0.00,WeatherDisplay:10.34,2013-08-19 01:54:00,
2013-08-18 21:59:00,63.5,56.2,30.25,NNW,339,0.0,0.0,77,0.00,CLR,CLR,0.00,WeatherDisplay:10.34,2013-08-19 01:59:00,
2013-08-18 22:05:00,63.3,56.0,30.25,NNW,339,0.0,0.0,77,0.00,CLR,CLR,0.00,WeatherDisplay:10.34,2013-08-19 02:05:00,
2013-08-18 22:10:00,63.1,55.8,30.25,NNW,339,0.0,0.0,77,0.00,CLR,CLR,0.00,WeatherDisplay:10.34,2013-08-19 02:10:00,
2013-08-18 22:15:00,63.1,56.2,30.25,NNW,339,0.0,0.0,78,0.00,CLR,CLR,0.00,WeatherDisplay:10.34,2013-08-19 02:15:00,
2013-08-18 22:20:00,63.0,56.3,30.25,NNW,339,0.0,0.0,79,0.00,CLR,CLR,0.00,WeatherDisplay:10.34,2013-08-19 02:20:00,
2013-08-18 22:25:00,62.8,56.5,30.25,NNW,339,0.0,0.0,80,0.00,CLR,CLR,0.00,WeatherDisplay:10.34,2013-08-19 02:25:00,
2013-08-18 22:30:00,62.6,56.3,30.25,NNW,339,0.0,0.0,80,0.00,CLR,CLR,0.00,WeatherDisplay:10.34,2013-08-19 02:30:00,
2013-08-18 22:35:00,62.6,56.3,30.25,NNW,339,0.0,0.0,80,0.00,CLR,CLR,0.00,WeatherDisplay:10.34,2013-08-19 02:35:00,
2013-08-18 22:40:00,62.6,56.3,30.25,NNW,339,0.0,0.0,80,0.00,CLR,CLR,0.00,WeatherDisplay:10.34,2013-08-19 02:40:00,
2013-08-18 22:45:00,62.4,56.5,30.25,NNW,339,0.0,0.0,81,0.00,CLR,CLR,0.00,WeatherDisplay:10.34,2013-08-19 02:45:00,
2013-08-18 22:50:00,62.2,56.3,30.25,NNW,339,0.0,0.0,81,0.00,CLR,CLR,0.00,WeatherDisplay:10.34,2013-08-19 02:50:00,
2013-08-18 22:55:00,62.2,56.3,30.25,NNW,339,0.0,0.0,81,0.00,CLR,CLR,0.00,WeatherDisplay:10.34,2013-08-19 02:55:00,
2013-08-18 23:00:00,62.1,56.2,30.25,NNW,339,0.0,0.0,81,0.00,CLR,CLR,0.00,WeatherDisplay:10.34,2013-08-19 03:00:00,
2013-08-18 23:05:00,61.9,56.3,30.22,NNW,339,0.0,0.0,82,0.00,CLR,CLR,0.00,WeatherDisplay:10.34,2013-08-19 03:05:00,
2013-08-18 23:10:00,61.9,56.3,30.22,NNW,339,0.0,0.0,82,0.00,CLR,CLR,0.00,WeatherDisplay:10.34,2013-08-19 03:10:00,
2013-08-18 23:15:00,61.7,56.1,30.22,NNW,339,0.0,0.0,82,0.00,CLR,CLR,0.00,WeatherDisplay:10.34,2013-08-19 03:15:00,
2013-08-18 23:20:00,61.7,56.1,30.22,NNW,337,0.0,0.0,82,0.00,CLR,CLR,0.00,WeatherDisplay:10.34,2013-08-19 03:20:00,
2013-08-18 23:25:00,61.7,56.1,30.22,NNW,337,0.0,0.0,82,0.00,CLR,CLR,0.00,WeatherDisplay:10.34,2013-08-19 03:25:00,
2013-08-18 23:30:00,61.5,56.0,30.22,NNW,337,0.0,0.0,82,0.00,CLR,CLR,0.00,WeatherDisplay:10.34,2013-08-19 03:30:00,
2013-08-18 23:35:00,61.3,55.8,30.22,NW,305,0.0,0.0,82,0.00,CLR,CLR,0.00,WeatherDisplay:10.34,2013-08-19 03:35:00,
2013-08-18 23:40:00,61.5,56.3,30.22,WNW,288,3.0,3.0,83,0.00,CLR,CLR,0.00,WeatherDisplay:10.34,2013-08-19 03:40:00,
2013-08-18 23:45:00,61.7,56.5,30.22,WSW,255,0.0,0.0,83,0.00,CLR,CLR,0.00,WeatherDisplay:10.34,2013-08-19 03:45:00,
2013-08-18 23:50:00,61.9,56.7,30.22,West,266,0.0,3.0,83,0.00,CLR,CLR,0.00,WeatherDisplay:10.34,2013-08-19 03:50:00,
2013-08-18 23:55:00,61.9,56.7,30.22,West,266,0.0,2.0,83,0.00,CLR,CLR,0.00,WeatherDisplay:10.34,2013-08-19 03:55:00,